Weather History for Aitkin, MN

Change the Weather History Date:

Saturday, November 24, 2012

  Actual Average Record
Temperature  
Mean Temperature 14 °F -  
Max Temperature 24 °F 28 °F 51 °F (2006)
Min Temperature 3 °F 10 °F -14 °F (1997)
Degree Days  
Heating Degree Days 52    
Moisture  
Dew Point 8 °F    
Average Humidity 70    
Maximum Humidity 79    
Minimum Humidity 63    
Precipitation  
Precipitation 0.00 in - - ()
Sea Level Pressure  
Sea Level Pressure 30.03 in    
Wind  
Wind Speed 2 mph (SSE)    
Max Wind Speed 10 mph    
Max Gust Speed -    
Visibility 9 miles    
Events Snow    
Averages and records for this station are not official NWS values.
T = Trace of Precipitation, MM = Missing Value Source: NWS Daily Summary

Daily Weather History Graph

Daily Weather History Graph

Search for Another Location

Airport:

Trip Planner

Search our weather history database for the weather conditions in past years. The results will help you decide how hot, cold, wet, or windy it might be!

Date:

Astronomy

Nov. 24, 2012 Rise Set
Actual Time 7:29 AM CST 4:32 PM CST
Civil Twilight 6:56 AM CST 5:06 PM CST
Nautical Twilight 6:18 AM CST 5:43 PM CST
Astronomical Twilight 5:42 AM CST 6:20 PM CST
Moon 2:27 PM CST (11/24) 3:36 AM CST (11/24)
Length of Visible Light 10h 10m
Length of Day
9h 02m
Waxing Gibbous, 87% of the Moon is Illuminated
Nov 24
Waxing Gibbous
Nov 28
Full
Dec 6
Last Quarter
Dec 13
New
Dec 19
First Quarter

Hourly Weather History & Observations

Time (CST) Temp. Windchill Dew Point Humidity Pressure Visibility Wind Dir Wind Speed Gust Speed Precip Events Conditions
12:12 AM 8.6 °F - 3.2 °F 79% 30.30 in 10.0 mi Calm Calm - N/A   Clear
12:33 AM 8.6 °F - 3.2 °F 79% 30.29 in 10.0 mi Calm Calm - N/A   Scattered Clouds
12:53 AM 8.6 °F - 1.4 °F 73% 30.29 in 10.0 mi Calm Calm - N/A   Overcast
1:12 AM 8.6 °F - 3.2 °F 79% 30.28 in 10.0 mi Calm Calm - N/A   Overcast
1:33 AM 8.6 °F - 1.4 °F 73% 30.28 in 7.0 mi Calm Calm - N/A Snow Light Snow
1:52 AM 8.6 °F - 1.4 °F 73% 30.28 in 7.0 mi Calm Calm - N/A Snow Light Snow
2:13 AM 8.6 °F - 1.4 °F 73% 30.27 in 10.0 mi Calm Calm - N/A   Mostly Cloudy
2:32 AM 8.6 °F - 1.4 °F 73% 30.27 in 5.0 mi Calm Calm - N/A Snow Light Snow
2:52 AM 6.8 °F - -0.4 °F 72% 30.27 in 10.0 mi Calm Calm - N/A   Mostly Cloudy
3:13 AM 6.8 °F - 1.4 °F 79% 30.26 in 10.0 mi Calm Calm - N/A   Overcast
3:32 AM 8.6 °F - 1.4 °F 73% 30.25 in 7.0 mi Calm Calm - N/A Snow Light Snow
3:52 AM 8.6 °F - 3.2 °F 79% 30.24 in 7.0 mi Calm Calm - N/A   Overcast
4:13 AM 8.6 °F - 3.2 °F 79% 30.23 in 10.0 mi Calm Calm - N/A Snow Light Snow
4:32 AM 8.6 °F - 1.4 °F 73% 30.23 in 7.0 mi Calm Calm - N/A Snow Light Snow
4:52 AM 8.6 °F - 3.2 °F 79% 30.23 in 7.0 mi Calm Calm - N/A Snow Light Snow
5:13 AM 8.6 °F - 3.2 °F 79% 30.23 in 10.0 mi Calm Calm - N/A   Overcast
5:32 AM 10.4 °F - 3.2 °F 73% 30.24 in 10.0 mi Calm Calm - N/A Snow Light Snow
5:52 AM 10.4 °F - 3.2 °F 73% 30.23 in 5.0 mi Calm Calm - N/A Snow Light Snow
6:13 AM 10.4 °F - 3.2 °F 73% 30.22 in 5.0 mi Calm Calm - N/A Snow Light Snow
6:32 AM 6.8 °F - 1.4 °F 79% 30.22 in 10.0 mi Calm Calm - N/A Snow Light Snow
6:53 AM 6.8 °F - 1.4 °F 79% 30.20 in 10.0 mi Calm Calm - N/A   Clear
7:13 AM 5.0 °F - -0.4 °F 78% 30.20 in 10.0 mi Calm Calm - N/A   Clear
7:32 AM 3.2 °F -4.2 °F -4.0 °F 72% 30.18 in 10.0 mi ESE 3.5 mph - N/A   Scattered Clouds
7:53 AM 6.8 °F - 1.4 °F 79% 30.18 in 10.0 mi Calm Calm - N/A Snow Light Snow
8:13 AM 8.6 °F - 3.2 °F 79% 30.16 in 7.0 mi Calm Calm - N/A Snow Light Snow
8:32 AM 10.4 °F - 3.2 °F 73% 30.16 in 10.0 mi Calm Calm - N/A   Overcast
8:53 AM 12.2 °F - 5.0 °F 73% 30.16 in 10.0 mi Calm Calm - N/A Snow Light Snow
9:13 AM 12.2 °F - 6.8 °F 79% 30.15 in 10.0 mi Calm Calm - N/A   Overcast
9:32 AM 14.0 °F - 8.6 °F 79% 30.14 in 10.0 mi Calm Calm - N/A Snow Light Snow
9:52 AM 15.8 °F 5.1 °F 10.4 °F 79% 30.13 in 10.0 mi SSE 8.1 mph - N/A Snow Light Snow
10:13 AM 15.8 °F 6.1 °F 10.4 °F 79% 30.12 in 10.0 mi SSE 6.9 mph - N/A Snow Light Snow
10:32 AM 17.6 °F 8.2 °F 10.4 °F 73% 30.12 in 10.0 mi SSE 6.9 mph - N/A Snow Light Snow
10:52 AM 19.4 °F 7.9 °F 10.4 °F 68% 30.10 in 10.0 mi South 10.4 mph - N/A   Scattered Clouds
11:13 AM 19.4 °F 7.9 °F 10.4 °F 68% 30.08 in 10.0 mi South 10.4 mph - N/A   Mostly Cloudy
11:32 AM 19.4 °F 9.5 °F 10.4 °F 68% 30.06 in 10.0 mi South 8.1 mph - N/A   Mostly Cloudy
11:52 AM 19.4 °F 7.9 °F 10.4 °F 68% 30.04 in 10.0 mi SSE 10.4 mph - N/A   Mostly Cloudy
12:13 PM 19.4 °F 7.9 °F 10.4 °F 68% 30.01 in 10.0 mi South 10.4 mph - N/A   Mostly Cloudy
12:32 PM 19.4 °F 8.6 °F 10.4 °F 68% 30.00 in 10.0 mi SSE 9.2 mph - N/A   Mostly Cloudy
12:52 PM 21.2 °F 10.9 °F 10.4 °F 63% 30.00 in 10.0 mi South 9.2 mph - N/A   Mostly Cloudy
1:13 PM 21.2 °F 10.9 °F 12.2 °F 68% 29.97 in 10.0 mi SSE 9.2 mph - N/A   Overcast
1:32 PM 21.2 °F 10.1 °F 12.2 °F 68% 29.95 in 10.0 mi SSE 10.4 mph - N/A   Overcast
1:52 PM 21.2 °F 12.6 °F 12.2 °F 68% 29.96 in 10.0 mi SSE 6.9 mph - N/A   Scattered Clouds
2:13 PM 21.2 °F 10.9 °F 10.4 °F 63% 29.95 in 10.0 mi SSE 9.2 mph - N/A   Scattered Clouds
2:32 PM 21.2 °F 11.7 °F 10.4 °F 63% 29.93 in 10.0 mi SSE 8.1 mph - N/A   Overcast
2:52 PM 21.2 °F 12.6 °F 10.4 °F 63% 29.92 in 10.0 mi SSE 6.9 mph - N/A   Overcast
3:13 PM 21.2 °F 11.7 °F 10.4 °F 63% 29.90 in 10.0 mi SE 8.1 mph - N/A   Scattered Clouds
3:32 PM 21.2 °F 10.9 °F 10.4 °F 63% 29.90 in 10.0 mi SSE 9.2 mph - N/A   Scattered Clouds
3:52 PM 21.2 °F 10.1 °F 10.4 °F 63% 29.87 in 10.0 mi SE 10.4 mph - N/A   Scattered Clouds
4:13 PM 21.2 °F 10.1 °F 10.4 °F 63% 29.85 in 10.0 mi SE 10.4 mph - N/A   Clear
4:32 PM 21.2 °F 10.9 °F 10.4 °F 63% 29.84 in 10.0 mi SE 9.2 mph - N/A   Mostly Cloudy
4:52 PM 21.2 °F 11.7 °F 10.4 °F 63% 29.84 in 10.0 mi SSE 8.1 mph - N/A   Overcast
5:13 PM 21.2 °F 10.1 °F 10.4 °F 63% 29.82 in 10.0 mi SSE 10.4 mph - N/A   Overcast
5:32 PM 21.2 °F 12.6 °F 10.4 °F 63% 29.82 in 10.0 mi SE 6.9 mph - N/A   Overcast
5:52 PM 21.2 °F 16.4 °F 10.4 °F 63% 29.84 in 10.0 mi SSE 3.5 mph - N/A Snow Light Snow
6:13 PM 21.2 °F 16.4 °F 12.2 °F 68% 29.84 in 2.5 mi SE 3.5 mph - N/A Snow Light Snow
6:32 PM 21.2 °F 16.4 °F 12.2 °F 68% 29.83 in 5.0 mi SE 3.5 mph - N/A Snow Light Snow
6:52 PM 21.2 °F - 14.0 °F 74% 29.83 in 10.0 mi Calm Calm - N/A Snow Light Snow
7:13 PM 23.0 °F 18.4 °F 14.0 °F 68% 29.83 in 7.0 mi South 3.5 mph - N/A Snow Light Snow
7:32 PM 23.0 °F 18.4 °F 14.0 °F 68% 29.81 in 7.0 mi South 3.5 mph - N/A Snow Light Snow
7:52 PM 23.0 °F 18.4 °F 14.0 °F 68% 29.80 in 10.0 mi South 3.5 mph - N/A Snow Light Snow
8:13 PM 24.8 °F 17.9 °F 14.0 °F 64% 29.78 in 10.0 mi South 5.8 mph - N/A   Overcast
8:32 PM 24.8 °F 19.1 °F 14.0 °F 64% 29.79 in 10.0 mi SSW 4.6 mph - N/A   Overcast
8:52 PM 24.8 °F 19.1 °F 14.0 °F 64% 29.78 in 10.0 mi South 4.6 mph - N/A   Overcast
9:12 PM 24.8 °F 19.1 °F 14.0 °F 64% 29.78 in 10.0 mi SSW 4.6 mph - N/A   Overcast
9:32 PM 24.8 °F 20.5 °F 14.0 °F 64% 29.77 in 10.0 mi SSW 3.5 mph - N/A   Overcast
9:53 PM 24.8 °F - 15.8 °F 69% 29.77 in 10.0 mi Calm Calm - N/A   Overcast
10:12 PM 24.8 °F - 14.0 °F 64% 29.77 in 10.0 mi Calm Calm - N/A   Overcast
10:32 PM 24.8 °F 20.5 °F 15.8 °F 69% 29.77 in 10.0 mi SSW 3.5 mph - N/A   Overcast
10:53 PM 24.8 °F - 14.0 °F 64% 29.77 in 10.0 mi Calm Calm - N/A   Overcast
11:12 PM 24.8 °F - 15.8 °F 69% 29.77 in 10.0 mi Calm Calm - N/A   Overcast
11:32 PM 24.8 °F - 15.8 °F 69% 29.76 in 10.0 mi Calm Calm - N/A   Overcast
11:53 PM 24.8 °F - 15.8 °F 69% 29.76 in 10.0 mi Calm Calm - N/A   Overcast